{"data":{"norad_id":59477,"epoch":"2026-09-21T05:27:57.875616Z","epoch_age_seconds":102169,"freshness":"FRESH","line1":"1 59477U 24068Y   26264.22775319 -.00000638  00000+0 -13653-4 0  9998","line2":"2 59477  43.0035 315.0705 0001230 262.0415  98.0297 15.27577088139059","mean_motion":15.27577088,"eccentricity":0.000123,"inclination_deg":43.0035,"raan_deg":315.0705,"arg_perigee_deg":262.0415,"mean_anomaly_deg":98.0297,"bstar":-1.3653e-5,"rev_number":13905,"period_min":94.266928413108,"perigee_km":482.21388866677,"apogee_km":483.90174259141,"semimajor_km":6861.1948156291,"source":"CELESTRAK","updated_at":"2026-09-22T09:00:48.951869Z"}}